Location: Espelette
(43.3402°N, 1.4474°W)
Time: 22:15:50
(UTC+00:00)

SeaSat 1 - Pass Details

Date: 19 May 2025
Orbit: 738 x 740 km, 108.0° (Epoch: 18 June)

Event Time Altitude Azimuth Distance (km) Brightness Sun altitude
Exits shadow 23:16:21 29° 254° (WSW) 1,338 3.7 -25.8°
Drops below altitude 10° 23:20:30 10° 312° (NW) 2,255 5.6 -25.9°
Sets 23:23:03 0° 323° (NW) 3,183 6.7 -26.0°
